Precipitable_Water
1.40 1.39 1.40 1.42 1.41 1.39 1.39 1.39 1.39 1.42 1.40 1.39 1.32 1.31 1.26 1.22 1.18 1.16 1.12 1.03 0.93 0.86 0.82 0.79 0.75 0.71 0.68 0.65 0.60 0.55 0.53 0.52 0.52 0.52 0.52 0.53 0.53 0.51 0.48 0.44 0.39 0.37 0.35 0.35 0.37 0.36 0.34 0.32 0.31 0.30 0.31 0.29 0.27 0.26 0.25 0.25 0.25 0.24 0.24 0.23 0.22 0.23 0.23 0.22 0.19 0.18 0.21 0.25 0.24 0.23 0.25 0.25 0.25 0.26 0.24 0.23 0.24 0.27 0.32 0.35 0.37 0.40 0.42 0.46 0.51
1.37 1.37 1.39 1.41 1.37 1.37 1.37 1.39 1.39 1.38 1.36 1.34 1.30 1.25 1.22 1.20 1.19 1.16 1.09 1.01 0.92 0.86 0.82 0.80 0.76 0.72 0.67 0.63 0.58 0.53 0.52 0.52 0.53 0.53 0.52 0.53 0.51 0.50 0.46 0.41 0.37 0.34 0.34 0.34 0.37 0.37 0.35 0.31 0.29 0.29 0.29 0.27 0.26 0.24 0.25 0.25 0.24 0.23 0.23 0.23 0.23 0.23 0.25 0.23 0.22 0.21 0.19 0.24 0.22 0.25 0.23 0.25 0.24 0.25 0.23 0.22 0.23 0.27 0.29 0.32 0.35 0.38 0.41 0.46 0.53
1.38 1.38 1.35 1.34 1.33 1.37 1.37 1.33 1.34 1.32 1.30 1.28 1.25 1.18 1.19 1.20 1.19 1.14 1.08 0.98 0.90 0.84 0.80 0.77 0.74 0.71 0.66 0.60 0.55 0.53 0.52 0.52 0.53 0.53 0.53 0.51 0.49 0.46 0.43 0.39 0.36 0.35 0.35 0.35 0.35 0.35 0.33 0.30 0.29 0.29 0.29 0.27 0.25 0.25 0.26 0.26 0.26 0.25 0.25 0.26 0.25 0.26 0.28 0.28 0.25 0.21 0.21 0.22 0.25 0.24 0.23 0.24 0.24 0.23 0.23 0.24 0.25 0.27 0.26 0.29 0.32 0.36 0.41 0.46 0.53
1.32 1.32 1.29 1.28 1.30 1.32 1.31 1.30 1.29 1.27 1.25 1.26 1.18 1.15 1.19 1.18 1.15 1.11 1.04 0.95 0.84 0.82 0.79 0.75 0.72 0.68 0.63 0.58 0.54 0.53 0.53 0.53 0.53 0.54 0.52 0.50 0.47 0.43 0.41 0.39 0.37 0.37 0.37 0.36 0.35 0.34 0.31 0.28 0.27 0.28 0.27 0.25 0.25 0.24 0.25 0.26 0.25 0.25 0.26 0.25 0.26 0.27 0.28 0.28 0.27 0.25 0.24 0.22 0.24 0.24 0.24 0.23 0.23 0.24 0.24 0.26 0.25 0.25 0.25 0.28 0.33 0.35 0.38 0.44 0.52
1.26 1.25 1.23 1.21 1.24 1.26 1.26 1.27 1.25 1.23 1.22 1.20 1.15 1.15 1.15 1.12 1.11 1.07 1.02 0.91 0.83 0.79 0.76 0.73 0.69 0.65 0.60 0.56 0.54 0.53 0.53 0.53 0.54 0.54 0.52 0.49 0.46 0.42 0.40 0.38 0.38 0.38 0.37 0.36 0.35 0.33 0.29 0.27 0.26 0.26 0.26 0.24 0.24 0.23 0.24 0.25 0.26 0.25 0.26 0.26 0.25 0.27 0.29 0.27 0.27 0.27 0.25 0.24 0.23 0.24 0.25 0.24 0.23 0.24 0.24 0.23 0.23 0.25 0.24 0.26 0.30 0.34 0.36 0.41 0.50
1.22 1.21 1.19 1.16 1.18 1.21 1.23 1.23 1.22 1.20 1.19 1.17 1.13 1.12 1.11 1.09 1.09 1.04 1.00 0.89 0.82 0.78 0.74 0.72 0.68 0.64 0.59 0.56 0.55 0.54 0.54 0.55 0.55 0.53 0.50 0.48 0.45 0.42 0.40 0.38 0.38 0.37 0.37 0.36 0.34 0.32 0.29 0.27 0.26 0.25 0.24 0.23 0.23 0.25 0.25 0.26 0.27 0.25 0.26 0.26 0.26 0.27 0.26 0.26 0.25 0.25 0.25 0.24 0.23 0.22 0.23 0.22 0.22 0.23 0.24 0.24 0.23 0.23 0.23 0.25 0.28 0.32 0.35 0.38 0.44
1.19 1.19 1.18 1.16 1.15 1.18 1.22 1.22 1.22 1.20 1.19 1.17 1.13 1.09 1.06 1.06 1.03 0.99 0.97 0.88 0.80 0.76 0.74 0.71 0.68 0.63 0.59 0.57 0.56 0.55 0.56 0.57 0.55 0.52 0.49 0.47 0.43 0.41 0.38 0.38 0.38 0.37 0.36 0.35 0.33 0.31 0.29 0.28 0.26 0.24 0.24 0.24 0.23 0.23 0.26 0.28 0.28 0.25 0.25 0.26 0.26 0.25 0.24 0.24 0.24 0.24 0.24 0.23 0.23 0.23 0.22 0.22 0.23 0.21 0.23 0.25 0.24 0.24 0.23 0.25 0.26 0.30 0.33 0.36 0.39
1.16 1.17 1.18 1.16 1.17 1.18 1.21 1.23 1.23 1.22 1.20 1.16 1.11 1.07 1.05 1.02 0.99 0.97 0.95 0.86 0.80 0.76 0.73 0.70 0.67 0.63 0.59 0.58 0.57 0.58 0.58 0.56 0.54 0.51 0.49 0.46 0.42 0.39 0.38 0.38 0.37 0.37 0.35 0.34 0.32 0.30 0.28 0.26 0.24 0.22 0.22 0.22 0.23 0.22 0.23 0.27 0.28 0.24 0.24 0.25 0.24 0.23 0.23 0.23 0.23 0.22 0.23 0.22 0.22 0.21 0.22 0.21 0.23 0.24 0.24 0.23 0.22 0.22 0.26 0.28 0.26 0.27 0.29 0.35 0.40
1.16 1.16 1.15 1.15 1.17 1.19 1.22 1.22 1.24 1.22 1.19 1.13 1.09 1.07 1.04 1.02 0.98 0.94 0.90 0.84 0.81 0.77 0.74 0.70 0.65 0.62 0.60 0.59 0.59 0.60 0.59 0.56 0.53 0.51 0.47 0.44 0.41 0.39 0.38 0.38 0.38 0.36 0.34 0.32 0.29 0.27 0.24 0.23 0.22 0.21 0.19 0.19 0.19 0.19 0.19 0.20 0.24 0.22 0.22 0.23 0.22 0.22 0.22 0.22 0.22 0.21 0.22 0.22 0.21 0.22 0.21 0.21 0.22 0.21 0.20 0.20 0.20 0.22 0.27 0.29 0.28 0.29 0.30 0.31 0.36
1.13 1.12 1.12 1.13 1.16 1.18 1.20 1.20 1.20 1.18 1.14 1.11 1.09 1.07 1.04 1.01 0.97 0.92 0.85 0.81 0.79 0.77 0.74 0.69 0.64 0.60 0.59 0.59 0.61 0.61 0.59 0.57 0.53 0.50 0.48 0.44 0.41 0.40 0.39 0.40 0.39 0.37 0.33 0.29 0.27 0.26 0.23 0.20 0.19 0.20 0.20 0.19 0.19 0.19 0.19 0.19 0.19 0.20 0.20 0.20 0.19 0.20 0.20 0.20 0.20 0.20 0.22 0.21 0.21 0.21 0.20 0.20 0.22 0.21 0.21 0.22 0.23 0.25 0.26 0.27 0.26 0.27 0.30 0.30 0.31
1.14 1.13 1.10 1.11 1.12 1.15 1.15 1.16 1.15 1.13 1.13 1.12 1.10 1.06 1.04 1.01 0.98 0.92 0.86 0.80 0.77 0.75 0.72 0.67 0.64 0.61 0.60 0.60 0.61 0.60 0.59 0.56 0.49 0.47 0.45 0.43 0.42 0.41 0.41 0.41 0.40 0.37 0.34 0.29 0.26 0.25 0.25 0.25 0.25 0.25 0.26 0.24 0.20 0.18 0.19 0.18 0.18 0.18 0.18 0.18 0.18 0.18 0.18 0.18 0.19 0.20 0.22 0.21 0.22 0.21 0.21 0.21 0.22 0.22 0.22 0.22 0.23 0.24 0.26 0.28 0.27 0.27 0.29 0.27 0.24
1.15 1.14 1.13 1.12 1.10 1.10 1.10 1.10 1.10 1.12 1.12 1.10 1.08 1.05 1.03 1.00 0.96 0.91 0.86 0.80 0.77 0.76 0.72 0.67 0.64 0.63 0.64 0.63 0.61 0.59 0.57 0.52 0.49 0.45 0.42 0.41 0.42 0.42 0.41 0.40 0.39 0.36 0.32 0.29 0.27 0.25 0.24 0.23 0.22 0.21 0.20 0.24 0.27 0.27 0.21 0.17 0.17 0.17 0.18 0.18 0.17 0.17 0.18 0.18 0.17 0.18 0.21 0.23 0.21 0.21 0.21 0.21 0.22 0.22 0.22 0.22 0.22 0.24 0.26 0.28 0.28 0.28 0.27 0.26 0.26
1.16 1.14 1.13 1.11 1.08 1.08 1.09 1.09 1.09 1.10 1.10 1.09 1.08 1.05 1.00 0.96 0.92 0.89 0.84 0.81 0.78 0.74 0.71 0.69 0.66 0.65 0.64 0.61 0.59 0.58 0.54 0.50 0.48 0.45 0.41 0.40 0.40 0.42 0.42 0.41 0.39 0.35 0.32 0.30 0.29 0.27 0.25 0.23 0.23 0.23 0.22 0.23 0.25 0.25 0.25 0.24 0.21 0.20 0.21 0.22 0.21 0.19 0.18 0.19 0.19 0.20 0.21 0.25 0.22 0.21 0.22 0.23 0.22 0.21 0.24 0.24 0.25 0.24 0.26 0.26 0.27 0.29 0.29 0.26 0.26
1.16 1.14 1.12 1.09 1.07 1.08 1.09 1.09 1.07 1.07 1.08 1.08 1.06 1.02 0.96 0.93 0.94 0.93 0.88 0.82 0.76 0.74 0.73 0.71 0.68 0.65 0.63 0.60 0.58 0.57 0.53 0.49 0.47 0.43 0.40 0.39 0.40 0.44 0.44 0.42 0.39 0.34 0.31 0.29 0.28 0.28 0.28 0.26 0.24 0.23 0.25 0.22 0.20 0.24 0.24 0.23 0.25 0.25 0.24 0.25 0.25 0.24 0.20 0.20 0.20 0.21 0.23 0.24 0.22 0.20 0.23 0.25 0.22 0.24 0.26 0.26 0.24 0.23 0.26 0.26 0.27 0.28 0.29 0.27 0.28
1.14 1.12 1.09 1.08 1.08 1.09 1.08 1.07 1.06 1.07 1.07 1.07 1.04 1.00 0.97 0.97 0.96 0.93 0.87 0.79 0.76 0.75 0.74 0.70 0.67 0.64 0.63 0.61 0.60 0.58 0.54 0.49 0.46 0.42 0.39 0.38 0.40 0.44 0.44 0.41 0.38 0.34 0.32 0.30 0.28 0.26 0.25 0.26 0.25 0.25 0.24 0.20 0.17 0.16 0.20 0.23 0.26 0.25 0.25 0.26 0.26 0.26 0.21 0.17 0.17 0.18 0.19 0.21 0.21 0.21 0.22 0.24 0.24 0.25 0.26 0.25 0.25 0.26 0.31 0.29 0.27 0.30 0.32 0.32 0.27
1.13 1.11 1.09 1.09 1.07 1.08 1.07 1.07 1.07 1.07 1.07 1.06 1.03 0.99 0.98 0.97 0.94 0.91 0.83 0.78 0.78 0.77 0.74 0.70 0.66 0.64 0.64 0.64 0.64 0.59 0.55 0.50 0.46 0.42 0.40 0.39 0.40 0.44 0.43 0.40 0.36 0.32 0.29 0.28 0.28 0.28 0.28 0.27 0.25 0.24 0.24 0.22 0.17 0.16 0.17 0.22 0.26 0.23 0.23 0.26 0.26 0.25 0.23 0.21 0.21 0.19 0.18 0.18 0.19 0.19 0.19 0.21 0.23 0.25 0.25 0.25 0.25 0.26 0.32 0.30 0.29 0.31 0.28 0.25 0.24
1.10 1.10 1.10 1.10 1.09 1.09 1.09 1.08 1.07 1.07 1.06 1.03 1.00 0.98 0.97 0.96 0.94 0.89 0.80 0.76 0.76 0.76 0.73 0.69 0.68 0.67 0.65 0.65 0.63 0.60 0.54 0.50 0.47 0.43 0.41 0.41 0.42 0.47 0.43 0.39 0.33 0.30 0.29 0.28 0.28 0.28 0.28 0.28 0.28 0.26 0.25 0.20 0.16 0.16 0.17 0.22 0.24 0.22 0.23 0.24 0.24 0.22 0.20 0.23 0.23 0.21 0.21 0.21 0.21 0.21 0.22 0.22 0.23 0.25 0.26 0.25 0.25 0.27 0.30 0.26 0.25 0.29 0.27 0.23 0.24
1.09 1.10 1.10 1.11 1.12 1.11 1.11 1.09 1.08 1.07 1.05 1.00 0.99 1.01 1.00 0.97 0.93 0.87 0.78 0.75 0.75 0.76 0.74 0.71 0.70 0.69 0.66 0.65 0.64 0.58 0.52 0.49 0.46 0.44 0.43 0.43 0.46 0.46 0.40 0.36 0.31 0.29 0.28 0.28 0.29 0.27 0.20 0.19 0.24 0.28 0.25 0.19 0.16 0.16 0.16 0.22 0.23 0.21 0.23 0.22 0.21 0.19 0.17 0.19 0.21 0.20 0.20 0.22 0.23 0.23 0.24 0.24 0.24 0.26 0.25 0.24 0.25 0.28 0.28 0.24 0.26 0.29 0.27 0.26 0.25
1.11 1.11 1.11 1.14 1.13 1.14 1.12 1.12 1.10 1.08 1.04 1.02 1.02 1.01 1.00 0.97 0.92 0.84 0.79 0.75 0.74 0.76 0.76 0.72 0.69 0.66 0.67 0.65 0.62 0.57 0.51 0.48 0.47 0.46 0.46 0.44 0.44 0.45 0.39 0.35 0.30 0.28 0.26 0.25 0.27 0.27 0.22 0.20 0.18 0.19 0.20 0.17 0.16 0.16 0.16 0.19 0.23 0.22 0.23 0.21 0.19 0.18 0.17 0.19 0.19 0.17 0.19 0.23 0.25 0.25 0.24 0.24 0.25 0.25 0.25 0.24 0.24 0.25 0.29 0.29 0.29 0.28 0.27 0.27 0.27
1.16 1.15 1.20 1.17 1.14 1.14 1.13 1.10 1.09 1.09 1.06 1.04 1.04 1.02 1.01 0.97 0.89 0.84 0.81 0.79 0.75 0.74 0.73 0.70 0.66 0.65 0.65 0.67 0.63 0.57 0.50 0.50 0.52 0.49 0.45 0.41 0.39 0.44 0.39 0.33 0.29 0.28 0.27 0.25 0.24 0.26 0.27 0.23 0.18 0.18 0.17 0.17 0.16 0.16 0.16 0.16 0.21 0.24 0.22 0.20 0.18 0.16 0.17 0.17 0.19 0.19 0.23 0.25 0.24 0.23 0.21 0.21 0.22 0.22 0.23 0.24 0.24 0.24 0.26 0.27 0.29 0.31 0.29 0.28 0.28
1.17 1.19 1.17 1.19 1.18 1.17 1.16 1.13 1.11 1.08 1.06 1.05 1.05 1.02 0.99 0.93 0.88 0.82 0.78 0.79 0.78 0.75 0.71 0.66 0.65 0.63 0.64 0.65 0.59 0.58 0.58 0.57 0.54 0.48 0.42 0.39 0.38 0.39 0.39 0.33 0.31 0.26 0.27 0.24 0.25 0.24 0.25 0.27 0.26 0.19 0.18 0.17 0.17 0.16 0.16 0.17 0.18 0.24 0.20 0.19 0.17 0.16 0.16 0.18 0.21 0.23 0.24 0.21 0.21 0.21 0.21 0.20 0.20 0.20 0.19 0.21 0.22 0.24 0.27 0.26 0.27 0.29 0.29 0.30 0.32
1.18 1.16 1.13 1.15 1.14 1.14 1.12 1.12 1.10 1.06 1.06 1.05 1.02 0.96 0.92 0.87 0.79 0.76 0.79 0.79 0.77 0.73 0.70 0.64 0.61 0.63 0.64 0.60 0.59 0.63 0.67 0.60 0.50 0.43 0.41 0.39 0.38 0.36 0.38 0.34 0.33 0.30 0.27 0.25 0.26 0.25 0.26 0.27 0.27 0.19 0.18 0.17 0.17 0.17 0.16 0.17 0.18 0.22 0.19 0.17 0.17 0.16 0.17 0.19 0.23 0.21 0.22 0.21 0.21 0.22 0.21 0.21 0.21 0.21 0.20 0.20 0.22 0.25 0.25 0.25 0.28 0.30 0.31 0.32 0.33
1.18 1.15 1.12 1.11 1.11 1.11 1.10 1.09 1.05 1.03 1.01 0.99 0.94 0.88 0.86 0.81 0.78 0.80 0.79 0.77 0.73 0.67 0.64 0.62 0.61 0.62 0.61 0.61 0.63 0.65 0.66 0.57 0.49 0.43 0.41 0.40 0.38 0.35 0.34 0.37 0.31 0.31 0.29 0.27 0.26 0.27 0.26 0.27 0.24 0.18 0.19 0.18 0.17 0.17 0.17 0.17 0.20 0.20 0.17 0.17 0.16 0.16 0.19 0.25 0.20 0.22 0.22 0.22 0.22 0.23 0.23 0.24 0.24 0.24 0.25 0.25 0.27 0.27 0.23 0.22 0.26 0.28 0.29 0.31 0.36
1.17 1.13 1.10 1.08 1.10 1.10 1.09 1.07 1.04 1.02 0.99 0.96 0.91 0.86 0.80 0.77 0.76 0.75 0.73 0.70 0.67 0.64 0.63 0.62 0.62 0.61 0.60 0.60 0.63 0.64 0.59 0.51 0.48 0.46 0.43 0.41 0.39 0.35 0.33 0.31 0.31 0.27 0.31 0.31 0.29 0.29 0.26 0.28 0.26 0.19 0.19 0.19 0.18 0.17 0.18 0.17 0.19 0.17 0.18 0.18 0.17 0.19 0.22 0.21 0.21 0.22 0.22 0.22 0.22 0.24 0.25 0.27 0.28 0.27 0.27 0.29 0.29 0.27 0.25 0.24 0.25 0.25 0.26 0.29 0.32
1.18 1.12 1.09 1.08 1.08 1.08 1.07 1.04 1.00 0.97 0.96 0.94 0.90 0.86 0.81 0.78 0.74 0.73 0.69 0.66 0.65 0.63 0.63 0.63 0.61 0.59 0.58 0.60 0.60 0.56 0.51 0.49 0.48 0.47 0.45 0.42 0.39 0.36 0.34 0.32 0.30 0.27 0.26 0.31 0.32 0.30 0.31 0.27 0.21 0.20 0.20 0.20 0.19 0.18 0.18 0.19 0.18 0.19 0.19 0.18 0.20 0.25 0.22 0.22 0.22 0.23 0.22 0.22 0.24 0.26 0.27 0.28 0.30 0.30 0.32 0.33 0.31 0.29 0.27 0.26 0.26 0.24 0.24 0.27 0.29
1.10 1.09 1.10 1.10 1.09 1.08 1.05 1.02 0.99 0.95 0.93 0.90 0.87 0.84 0.80 0.75 0.73 0.71 0.68 0.65 0.65 0.63 0.63 0.63 0.62 0.62 0.62 0.61 0.55 0.50 0.48 0.48 0.48 0.46 0.45 0.43 0.40 0.37 0.35 0.33 0.31 0.29 0.25 0.31 0.31 0.27 0.24 0.23 0.22 0.22 0.21 0.20 0.20 0.23 0.26 0.25 0.21 0.19 0.20 0.20 0.26 0.23 0.22 0.24 0.23 0.24 0.23 0.24 0.25 0.26 0.28 0.29 0.31 0.32 0.33 0.33 0.31 0.29 0.28 0.26 0.27 0.25 0.25 0.25 0.24
1.05 1.05 1.05 1.05 1.04 1.02 1.01 0.99 0.96 0.95 0.92 0.88 0.85 0.83 0.79 0.74 0.72 0.69 0.66 0.64 0.65 0.65 0.64 0.63 0.63 0.64 0.63 0.56 0.50 0.47 0.46 0.45 0.46 0.45 0.44 0.43 0.40 0.38 0.35 0.33 0.31 0.29 0.26 0.24 0.25 0.23 0.23 0.23 0.24 0.22 0.23 0.22 0.21 0.21 0.19 0.19 0.19 0.23 0.25 0.27 0.25 0.23 0.24 0.25 0.26 0.27 0.26 0.26 0.27 0.27 0.29 0.30 0.33 0.32 0.32 0.31 0.30 0.31 0.31 0.29 0.28 0.27 0.26 0.25 0.23
1.01 1.01 1.00 0.99 0.99 0.99 0.97 0.95 0.92 0.89 0.88 0.87 0.86 0.86 0.84 0.78 0.73 0.69 0.66 0.66 0.65 0.64 0.64 0.64 0.64 0.63 0.56 0.51 0.47 0.44 0.42 0.42 0.44 0.44 0.43 0.42 0.39 0.37 0.34 0.32 0.30 0.28 0.25 0.25 0.26 0.26 0.26 0.24 0.24 0.23 0.22 0.21 0.20 0.20 0.23 0.25 0.25 0.23 0.25 0.24 0.23 0.24 0.25 0.27 0.27 0.31 0.29 0.29 0.29 0.29 0.29 0.30 0.30 0.30 0.31 0.31 0.30 0.32 0.33 0.31 0.30 0.29 0.29 0.27 0.24
0.99 0.97 0.97 0.96 0.96 0.96 0.96 0.95 0.92 0.89 0.87 0.88 0.88 0.88 0.83 0.79 0.74 0.70 0.69 0.68 0.68 0.66 0.65 0.64 0.62 0.58 0.51 0.47 0.43 0.40 0.39 0.39 0.41 0.45 0.43 0.41 0.38 0.35 0.32 0.30 0.30 0.28 0.27 0.30 0.30 0.31 0.29 0.27 0.24 0.25 0.25 0.24 0.25 0.24 0.25 0.25 0.25 0.25 0.25 0.25 0.24 0.26 0.29 0.29 0.28 0.28 0.28 0.28 0.28 0.28 0.28 0.28 0.29 0.30 0.30 0.29 0.30 0.31 0.33 0.32 0.34 0.32 0.31 0.30 0.27
0.96 0.95 0.96 0.96 0.96 0.95 0.94 0.93 0.91 0.88 0.87 0.86 0.86 0.86 0.86 0.83 0.80 0.73 0.70 0.70 0.70 0.69 0.65 0.60 0.55 0.51 0.47 0.46 0.44 0.39 0.37 0.40 0.43 0.42 0.41 0.40 0.37 0.34 0.33 0.32 0.31 0.31 0.30 0.28 0.30 0.28 0.26 0.26 0.26 0.26 0.26 0.25 0.25 0.24 0.24 0.25 0.25 0.25 0.26 0.23 0.22 0.27 0.27 0.28 0.30 0.29 0.29 0.28 0.28 0.28 0.28 0.27 0.28 0.28 0.28 0.28 0.28 0.30 0.32 0.32 0.33 0.34 0.32 0.30 0.29
0.95 0.95 0.95 0.96 0.96 0.96 0.94 0.92 0.90 0.88 0.88 0.88 0.87 0.85 0.83 0.81 0.79 0.77 0.75 0.72 0.68 0.64 0.59 0.57 0.55 0.53 0.49 0.46 0.45 0.43 0.42 0.42 0.41 0.41 0.40 0.38 0.34 0.31 0.30 0.30 0.29 0.29 0.29 0.26 0.23 0.23 0.26 0.26 0.26 0.27 0.25 0.25 0.25 0.24 0.24 0.23 0.23 0.22 0.23 0.25 0.25 0.27 0.27 0.30 0.30 0.29 0.29 0.29 0.29 0.29 0.28 0.28 0.28 0.28 0.28 0.28 0.28 0.29 0.31 0.31 0.33 0.33 0.32 0.32 0.30
0.91 0.92 0.93 0.95 0.96 0.95 0.94 0.92 0.91 0.88 0.87 0.88 0.88 0.87 0.83 0.78 0.76 0.77 0.75 0.70 0.68 0.64 0.59 0.54 0.52 0.49 0.47 0.49 0.45 0.40 0.41 0.41 0.40 0.39 0.37 0.35 0.32 0.30 0.28 0.27 0.27 0.27 0.27 0.26 0.23 0.23 0.24 0.25 0.25 0.25 0.26 0.25 0.25 0.24 0.24 0.25 0.24 0.24 0.25 0.24 0.25 0.28 0.29 0.30 0.31 0.30 0.30 0.30 0.29 0.28 0.28 0.28 0.28 0.28 0.28 0.29 0.29 0.29 0.29 0.29 0.31 0.31 0.31 0.32 0.31
0.89 0.90 0.92 0.94 0.95 0.95 0.94 0.92 0.90 0.88 0.87 0.87 0.87 0.87 0.83 0.78 0.73 0.72 0.72 0.68 0.65 0.61 0.57 0.54 0.51 0.49 0.48 0.47 0.45 0.42 0.40 0.39 0.37 0.36 0.34 0.32 0.29 0.27 0.27 0.26 0.26 0.27 0.26 0.25 0.23 0.23 0.25 0.25 0.26 0.26 0.26 0.25 0.25 0.25 0.25 0.26 0.26 0.26 0.27 0.27 0.27 0.30 0.32 0.33 0.32 0.32 0.30 0.30 0.29 0.29 0.30 0.29 0.29 0.29 0.30 0.30 0.30 0.29 0.29 0.29 0.30 0.31 0.31 0.30 0.30
0.91 0.91 0.92 0.93 0.93 0.93 0.92 0.93 0.92 0.91 0.91 0.90 0.88 0.86 0.83 0.80 0.76 0.72 0.67 0.62 0.60 0.59 0.56 0.54 0.52 0.50 0.49 0.46 0.43 0.40 0.36 0.34 0.36 0.35 0.32 0.29 0.28 0.27 0.27 0.27 0.27 0.27 0.26 0.25 0.24 0.23 0.24 0.26 0.27 0.27 0.28 0.28 0.28 0.28 0.27 0.25 0.25 0.27 0.28 0.29 0.31 0.33 0.34 0.35 0.35 0.34 0.33 0.32 0.32 0.31 0.31 0.31 0.31 0.30 0.30 0.30 0.31 0.31 0.30 0.30 0.30 0.30 0.30 0.30 0.30
0.92 0.92 0.93 0.93 0.92 0.91 0.91 0.92 0.91 0.91 0.92 0.89 0.86 0.85 0.82 0.80 0.77 0.72 0.66 0.60 0.55 0.52 0.50 0.50 0.51 0.50 0.46 0.42 0.39 0.36 0.35 0.38 0.39 0.38 0.35 0.30 0.28 0.28 0.28 0.26 0.24 0.25 0.25 0.25 0.26 0.26 0.26 0.26 0.27 0.28 0.28 0.29 0.29 0.28 0.27 0.28 0.28 0.29 0.30 0.30 0.33 0.34 0.34 0.34 0.33 0.33 0.33 0.33 0.32 0.32 0.32 0.31 0.31 0.31 0.30 0.30 0.31 0.31 0.31 0.32 0.32 0.33 0.32 0.32 0.32
0.91 0.91 0.92 0.91 0.90 0.90 0.90 0.91 0.91 0.90 0.89 0.87 0.86 0.84 0.81 0.79 0.75 0.71 0.65 0.61 0.57 0.54 0.51 0.50 0.47 0.45 0.43 0.40 0.37 0.36 0.39 0.42 0.43 0.43 0.41 0.37 0.31 0.28 0.25 0.25 0.25 0.24 0.25 0.25 0.25 0.26 0.28 0.29 0.30 0.29 0.29 0.30 0.31 0.31 0.30 0.29 0.29 0.30 0.32 0.33 0.33 0.33 0.33 0.33 0.33 0.33 0.32 0.31 0.31 0.31 0.32 0.33 0.33 0.32 0.32 0.32 0.32 0.32 0.33 0.33 0.33 0.34 0.34 0.34 0.34
0.92 0.92 0.92 0.92 0.91 0.89 0.90 0.90 0.92 0.90 0.90 0.88 0.86 0.83 0.82 0.80 0.78 0.73 0.69 0.66 0.63 0.58 0.55 0.53 0.50 0.46 0.43 0.42 0.41 0.42 0.43 0.45 0.47 0.47 0.44 0.42 0.38 0.32 0.27 0.26 0.25 0.26 0.26 0.27 0.27 0.27 0.27 0.27 0.28 0.29 0.31 0.31 0.32 0.31 0.31 0.30 0.31 0.33 0.34 0.33 0.33 0.34 0.34 0.34 0.33 0.32 0.31 0.31 0.32 0.33 0.34 0.34 0.34 0.34 0.33 0.32 0.32 0.33 0.34 0.34 0.34 0.34 0.34 0.34 0.34
0.96 0.95 0.93 0.92 0.91 0.89 0.88 0.88 0.88 0.88 0.87 0.86 0.85 0.83 0.82 0.80 0.75 0.72 0.70 0.67 0.61 0.57 0.58 0.57 0.52 0.45 0.41 0.42 0.46 0.46 0.47 0.49 0.51 0.49 0.46 0.44 0.40 0.35 0.30 0.28 0.27 0.27 0.27 0.27 0.28 0.29 0.28 0.28 0.29 0.30 0.30 0.31 0.31 0.31 0.32 0.33 0.33 0.34 0.34 0.35 0.35 0.35 0.34 0.33 0.32 0.33 0.34 0.34 0.34 0.34 0.34 0.34 0.34 0.34 0.34 0.33 0.33 0.33 0.34 0.34 0.35 0.34 0.34 0.35 0.35
0.98 0.98 0.96 0.95 0.93 0.91 0.89 0.87 0.86 0.86 0.84 0.81 0.81 0.80 0.77 0.75 0.73 0.72 0.70 0.66 0.59 0.53 0.54 0.58 0.52 0.48 0.45 0.49 0.49 0.51 0.50 0.49 0.48 0.46 0.45 0.43 0.41 0.37 0.33 0.30 0.28 0.26 0.27 0.27 0.28 0.28 0.28 0.29 0.29 0.30 0.31 0.31 0.31 0.32 0.33 0.33 0.33 0.34 0.35 0.35 0.34 0.35 0.35 0.34 0.34 0.34 0.33 0.33 0.33 0.34 0.34 0.35 0.35 0.35 0.35 0.35 0.34 0.35 0.35 0.35 0.35 0.35 0.34 0.34 0.34
0.92 0.92 0.93 0.93 0.92 0.91 0.89 0.87 0.86 0.84 0.82 0.81 0.80 0.79 0.74 0.72 0.72 0.71 0.70 0.66 0.61 0.56 0.56 0.56 0.53 0.49 0.50 0.52 0.50 0.51 0.49 0.49 0.50 0.50 0.47 0.44 0.41 0.38 0.35 0.32 0.30 0.27 0.25 0.24 0.25 0.27 0.28 0.28 0.28 0.28 0.29 0.31 0.32 0.33 0.33 0.33 0.33 0.34 0.34 0.35 0.34 0.34 0.34 0.34 0.33 0.33 0.33 0.34 0.33 0.33 0.34 0.35 0.36 0.36 0.36 0.36 0.36 0.36 0.36 0.36 0.36 0.36 0.35 0.35 0.35
0.86 0.86 0.88 0.89 0.89 0.88 0.88 0.87 0.84 0.83 0.81 0.81 0.81 0.78 0.74 0.74 0.74 0.72 0.70 0.66 0.61 0.56 0.52 0.49 0.46 0.44 0.48 0.49 0.48 0.51 0.51 0.52 0.53 0.52 0.48 0.44 0.41 0.38 0.35 0.32 0.30 0.27 0.26 0.25 0.25 0.25 0.26 0.26 0.26 0.26 0.28 0.31 0.34 0.34 0.34 0.34 0.34 0.34 0.34 0.35 0.35 0.35 0.34 0.34 0.34 0.35 0.35 0.34 0.34 0.34 0.35 0.36 0.37 0.37 0.36 0.36 0.37 0.36 0.36 0.37 0.37 0.37 0.37 0.36 0.36
0.83 0.82 0.83 0.84 0.86 0.85 0.84 0.84 0.83 0.83 0.79 0.76 0.77 0.76 0.74 0.73 0.72 0.71 0.70 0.66 0.60 0.54 0.47 0.45 0.44 0.44 0.45 0.45 0.49 0.52 0.53 0.54 0.54 0.51 0.47 0.43 0.40 0.37 0.34 0.32 0.31 0.27 0.25 0.25 0.25 0.24 0.24 0.25 0.26 0.28 0.30 0.32 0.33 0.34 0.34 0.34 0.34 0.34 0.34 0.35 0.35 0.34 0.34 0.34 0.35 0.36 0.35 0.35 0.35 0.35 0.36 0.37 0.38 0.38 0.37 0.37 0.37 0.37 0.37 0.37 0.37 0.37 0.37 0.36 0.36
0.83 0.82 0.82 0.82 0.82 0.82 0.81 0.82 0.81 0.80 0.78 0.77 0.76 0.75 0.74 0.72 0.71 0.70 0.67 0.62 0.56 0.51 0.46 0.45 0.47 0.49 0.47 0.49 0.51 0.53 0.53 0.54 0.53 0.50 0.48 0.44 0.40 0.36 0.32 0.30 0.29 0.27 0.27 0.27 0.27 0.28 0.30 0.31 0.31 0.32 0.33 0.34 0.36 0.35 0.35 0.34 0.34 0.34 0.35 0.35 0.35 0.35 0.35 0.36 0.36 0.36 0.37 0.37 0.37 0.37 0.37 0.37 0.37 0.38 0.38 0.38 0.38 0.38 0.38 0.38 0.38 0.38 0.37 0.38 0.37
0.82 0.81 0.81 0.80 0.80 0.80 0.80 0.80 0.78 0.78 0.77 0.77 0.75 0.73 0.72 0.71 0.70 0.68 0.65 0.60 0.55 0.51 0.49 0.50 0.50 0.49 0.48 0.50 0.52 0.52 0.52 0.52 0.52 0.50 0.48 0.45 0.39 0.34 0.31 0.29 0.27 0.27 0.29 0.31 0.33 0.35 0.37 0.38 0.38 0.38 0.38 0.39 0.40 0.41 0.41 0.39 0.38 0.36 0.35 0.36 0.36 0.36 0.36 0.36 0.37 0.37 0.38 0.38 0.38 0.38 0.38 0.38 0.38 0.39 0.39 0.39 0.39 0.39 0.39 0.39 0.39 0.38 0.38 0.38 0.38
0.81 0.80 0.79 0.78 0.78 0.78 0.78 0.79 0.77 0.75 0.74 0.73 0.72 0.72 0.71 0.70 0.68 0.66 0.64 0.59 0.55 0.53 0.51 0.51 0.52 0.52 0.51 0.51 0.52 0.50 0.50 0.51 0.51 0.49 0.47 0.42 0.36 0.32 0.28 0.28 0.31 0.34 0.36 0.38 0.40 0.42 0.42 0.41 0.41 0.40 0.40 0.41 0.42 0.43 0.43 0.42 0.41 0.41 0.40 0.40 0.38 0.38 0.38 0.39 0.40 0.41 0.41 0.39 0.39 0.40 0.40 0.40 0.40 0.40 0.40 0.41 0.41 0.41 0.40 0.40 0.39 0.39 0.38 0.38 0.37
0.80 0.79 0.78 0.77 0.76 0.76 0.76 0.75 0.73 0.72 0.72 0.71 0.69 0.68 0.68 0.68 0.67 0.66 0.63 0.59 0.56 0.54 0.53 0.54 0.54 0.54 0.53 0.52 0.51 0.51 0.51 0.51 0.50 0.47 0.43 0.37 0.32 0.30 0.34 0.36 0.39 0.41 0.43 0.45 0.46 0.46 0.46 0.45 0.44 0.43 0.42 0.42 0.43 0.43 0.43 0.44 0.44 0.44 0.44 0.43 0.43 0.42 0.43 0.43 0.43 0.43 0.43 0.43 0.42 0.42 0.42 0.42 0.41 0.42 0.42 0.42 0.42 0.42 0.41 0.41 0.40 0.40 0.39 0.38 0.38
0.79 0.79 0.78 0.77 0.75 0.74 0.74 0.73 0.72 0.70 0.69 0.67 0.66 0.67 0.68 0.69 0.68 0.66 0.61 0.58 0.56 0.55 0.55 0.55 0.55 0.54 0.53 0.54 0.54 0.53 0.52 0.49 0.45 0.39 0.35 0.35 0.37 0.39 0.43 0.45 0.47 0.47 0.47 0.48 0.48 0.47 0.46 0.46 0.46 0.45 0.44 0.43 0.43 0.44 0.44 0.44 0.44 0.44 0.43 0.42 0.42 0.42 0.42 0.43 0.44 0.45 0.45 0.45 0.45 0.44 0.43 0.42 0.42 0.43 0.43 0.43 0.42 0.42 0.41 0.41 0.40 0.39 0.38 0.38 0.38
0.79 0.78 0.77 0.77 0.77 0.75 0.73 0.72 0.70 0.69 0.69 0.70 0.71 0.71 0.71 0.70 0.66 0.60 0.57 0.56 0.55 0.54 0.54 0.54 0.54 0.54 0.55 0.55 0.55 0.53 0.48 0.41 0.37 0.38 0.40 0.42 0.43 0.45 0.47 0.47 0.48 0.49 0.49 0.48 0.48 0.47 0.47 0.47 0.46 0.44 0.43 0.43 0.43 0.44 0.45 0.45 0.44 0.43 0.41 0.41 0.42 0.43 0.43 0.45 0.45 0.45 0.45 0.46 0.46 0.46 0.45 0.45 0.45 0.44 0.44 0.43 0.42 0.42 0.41 0.40 0.39 0.38 0.38 0.38 0.38
0.78 0.78 0.78 0.76 0.74 0.73 0.71 0.71 0.72 0.72 0.72 0.71 0.70 0.69 0.67 0.64 0.60 0.59 0.58 0.57 0.56 0.56 0.56 0.57 0.58 0.58 0.57 0.56 0.51 0.43 0.39 0.40 0.41 0.43 0.44 0.46 0.48 0.50 0.51 0.51 0.50 0.50 0.49 0.48 0.48 0.47 0.47 0.46 0.46 0.46 0.45 0.45 0.45 0.45 0.44 0.44 0.43 0.43 0.43 0.44 0.44 0.44 0.44 0.45 0.45 0.44 0.45 0.46 0.47 0.47 0.47 0.46 0.45 0.44 0.43 0.42 0.41 0.40 0.38 0.37 0.37 0.37 0.36 0.36 0.35
0.79 0.78 0.77 0.77 0.76 0.75 0.75 0.74 0.72 0.71 0.69 0.68 0.66 0.64 0.61 0.59 0.57 0.55 0.55 0.55 0.55 0.57 0.58 0.58 0.56 0.55 0.52 0.44 0.40 0.41 0.43 0.45 0.47 0.49 0.50 0.50 0.51 0.51 0.51 0.51 0.51 0.50 0.49 0.49 0.49 0.49 0.48 0.48 0.47 0.46 0.46 0.46 0.45 0.45 0.44 0.44 0.44 0.44 0.44 0.44 0.44 0.44 0.44 0.44 0.44 0.44 0.45 0.46 0.47 0.47 0.45 0.43 0.42 0.41 0.40 0.39 0.38 0.37 0.36 0.35 0.33 0.33 0.32 0.31 0.31
0.77 0.76 0.75 0.73 0.71 0.70 0.69 0.68 0.66 0.65 0.64 0.62 0.60 0.58 0.57 0.56 0.55 0.56 0.56 0.57 0.56 0.56 0.54 0.53 0.51 0.47 0.43 0.44 0.47 0.50 0.51 0.51 0.52 0.51 0.51 0.50 0.50 0.51 0.51 0.50 0.50 0.50 0.51 0.50 0.49 0.49 0.48 0.47 0.47 0.47 0.46 0.46 0.46 0.45 0.45 0.44 0.44 0.44 0.44 0.44 0.44 0.44 0.44 0.44 0.44 0.45 0.45 0.45 0.46 0.44 0.42 0.40 0.38 0.36 0.35 0.35 0.34 0.32 0.31 0.29 0.30 0.31 0.31 0.32 0.32
Wind_Speed
15 14 13 13 13 13 13 14 15 16 16 16 14 14 13 12 11 10 10 11 11 11 10 10 10 9 8 8 7 7 7 6 5 5 5 5 5 5 5 6 6 7 8 9 9 10 11 11 12 13 14 15 16 17 18 19 21 22 23 23 24 25 26 26 27 28 29 31 32 32 34 35 35 35 37 38 39 39 39 38 38 38 38 38 38
16 14 13 13 13 13 13 14 15 16 16 15 14 14 13 12 11 10 10 11 11 11 11 10 9 9 8 8 7 7 7 6 6 6 6 5 5 5 6 6 6 7 8 9 9 10 10 11 12 13 14 15 16 17 18 19 21 22 23 23 24 25 26 27 27 28 29 30 31 32 33 35 35 35 36 37 38 39 39 38 38 38 38 38 37
15 14 13 13 13 13 14 15 16 15 15 14 14 14 13 12 11 10 10 11 11 11 10 10 9 9 8 8 8 8 7 7 6 6 6 6 5 6 6 6 7 7 8 8 9 10 10 11 13 13 14 15 16 17 18 19 21 22 22 23 24 25 26 27 27 28 29 30 31 32 33 34 34 34 35 36 38 39 39 38 38 38 38 38 37
15 14 13 13 12 13 15 15 16 15 15 15 15 14 13 12 11 10 10 11 11 11 11 10 10 9 9 9 8 8 8 7 7 6 6 6 6 6 6 6 7 7 8 8 9 10 11 12 13 13 14 15 16 17 18 19 20 22 22 23 24 25 26 27 27 28 29 29 30 31 32 33 34 34 35 36 37 38 39 39 38 37 38 37 36
15 14 14 13 13 14 15 15 15 15 15 15 15 13 13 12 11 10 10 11 11 11 11 11 10 10 9 9 9 9 8 8 7 7 6 6 6 6 6 7 7 7 8 8 9 10 11 12 12 13 14 15 16 17 18 19 20 21 22 23 24 25 25 26 27 28 28 29 30 31 32 33 33 34 35 36 37 38 38 39 38 36 36 36 35
15 15 14 14 13 14 15 15 16 15 15 15 15 14 13 13 12 11 11 11 11 11 11 11 11 10 10 10 10 10 9 8 8 7 7 7 7 7 7 7 7 7 8 8 9 10 11 11 12 13 14 15 15 17 18 19 20 21 22 22 23 25 25 26 27 27 27 28 29 30 31 32 33 34 35 37 37 38 38 39 38 36 35 35 35
15 15 15 15 14 14 15 15 16 15 15 15 14 14 14 13 12 11 11 12 12 12 12 11 11 11 11 11 11 10 10 9 8 8 8 7 7 7 7 8 8 8 8 8 9 10 10 11 12 13 14 14 15 17 18 18 19 20 21 22 23 24 25 26 26 27 27 28 29 30 31 32 33 34 35 37 37 38 38 38 38 37 36 36 36
16 15 16 15 15 14 15 15 16 15 14 14 14 14 14 13 12 11 12 12 12 13 12 12 12 11 11 11 11 11 10 9 9 9 8 8 8 8 8 8 8 8 8 8 9 10 10 11 12 12 13 14 15 16 17 18 18 19 20 21 23 24 25 25 26 26 26 27 28 30 31 31 33 34 35 37 37 38 38 38 38 38 37 36 37
16 16 15 15 15 15 15 15 16 16 15 15 15 14 14 13 12 12 12 12 13 13 13 12 12 12 12 12 12 11 11 10 10 10 9 9 9 9 8 8 8 8 8 8 9 9 10 10 11 12 12 13 15 16 17 17 18 18 20 21 22 23 24 25 26 26 26 27 28 29 30 31 32 34 35 37 38 38 38 38 37 37 37 37 37
16 15 15 15 16 16 16 16 16 16 16 16 15 15 14 14 13 13 13 13 13 13 13 13 13 13 13 13 13 12 12 11 11 10 10 10 9 9 9 9 8 8 8 8 9 9 9 10 11 11 12 13 14 15 16 17 17 18 19 20 22 23 24 25 26 27 27 27 28 29 30 31 32 33 35 37 38 38 38 37 37 37 38 38 37
17 16 15 15 17 17 17 17 16 17 17 17 16 15 15 14 14 14 14 14 14 14 14 13 13 14 14 14 14 13 13 12 11 11 10 10 10 10 9 9 9 8 8 8 8 9 9 10 11 11 12 12 13 14 15 15 16 17 18 20 21 22 24 25 26 27 27 28 28 29 30 31 32 33 34 36 37 37 37 37 37 37 38 38 38
18 17 16 16 17 18 18 17 17 17 17 17 16 15 15 14 14 15 15 15 15 14 14 14 14 14 15 15 15 14 13 13 12 11 11 11 11 10 10 9 9 8 8 8 8 9 9 10 11 11 12 13 13 14 14 15 15 17 18 19 20 22 23 24 26 27 28 28 28 29 30 31 31 32 34 35 36 37 37 36 37 37 37 37 37
19 18 17 17 17 18 19 18 18 18 17 17 16 16 15 15 15 15 16 16 15 15 15 14 14 15 15 16 15 15 14 14 13 13 12 12 11 11 10 10 9 9 9 8 9 9 9 10 10 11 12 13 13 14 14 14 15 16 17 18 20 21 22 24 25 27 28 28 29 30 30 31 31 32 33 34 35 36 36 36 36 36 35 36 36
20 18 17 17 18 19 19 19 19 18 18 17 17 17 17 16 16 16 16 16 16 16 15 15 15 16 16 16 16 15 15 15 14 14 13 13 12 11 11 10 10 9 9 9 9 9 9 10 10 11 11 12 13 13 13 14 15 16 17 18 20 21 22 24 25 26 27 28 29 29 30 31 31 32 32 33 34 34 34 35 36 35 35 35 35
21 19 18 18 19 19 20 20 19 19 18 18 18 18 18 17 17 17 17 17 17 16 16 16 16 17 17 17 17 17 16 16 15 15 14 14 13 12 11 11 10 10 9 9 9 9 9 10 10 10 11 12 12 13 13 14 15 16 17 18 20 21 22 24 25 26 27 28 29 29 30 31 31 31 32 33 33 34 33 33 34 34 34 34 35
21 20 19 19 19 20 20 20 20 19 19 19 19 19 19 18 18 18 18 18 18 17 17 17 17 17 18 18 18 17 17 17 16 16 15 14 13 12 12 11 10 10 9 9 9 9 10 10 10 10 11 11 12 12 13 14 15 16 17 18 19 20 22 24 25 26 27 28 28 29 30 30 31 32 32 32 33 33 32 32 33 33 33 34 35
22 21 21 21 21 21 22 21 21 20 20 20 20 20 20 19 19 19 19 19 19 18 18 17 18 18 18 18 18 18 18 18 17 16 16 15 14 13 12 11 10 10 10 10 10 10 10 10 10 10 11 11 12 12 13 14 15 16 17 18 19 20 22 24 24 26 27 27 28 28 29 30 31 31 32 32 32 32 31 31 32 32 33 34 34
22 22 22 22 22 23 23 23 22 21 21 21 21 21 20 20 20 20 20 20 19 19 18 18 18 18 18 19 19 19 19 18 17 17 16 16 14 13 12 11 10 10 10 10 10 10 9 10 10 10 11 11 11 12 13 14 15 16 17 18 19 20 22 23 24 25 26 26 27 28 28 29 30 31 31 32 32 32 31 31 32 32 32 33 34
23 23 23 23 23 23 23 23 23 22 22 22 22 21 21 21 21 21 21 20 20 19 18 18 18 19 19 19 18 18 18 18 18 17 16 16 15 12 11 11 11 11 11 11 10 10 10 10 10 10 10 11 11 12 13 14 15 16 17 18 19 20 21 22 23 24 26 26 27 27 28 29 30 30 31 31 32 32 31 31 31 31 31 32 33
23 23 23 21 21 22 22 22 22 23 23 23 22 22 22 22 22 21 21 20 20 19 19 19 18 19 19 18 18 18 18 17 18 18 17 16 15 13 12 12 11 11 11 11 10 10 10 10 10 10 10 11 11 12 13 14 15 16 16 17 19 20 21 22 23 24 25 25 26 26 27 28 29 29 30 30 31 32 32 31 31 30 30 31 32
23 23 22 20 20 21 21 21 21 21 22 22 22 22 22 22 22 21 20 20 20 19 19 19 18 19 19 18 18 18 18 17 18 18 18 16 15 13 12 12 12 12 11 11 11 11 11 11 11 10 10 11 11 12 13 14 15 16 16 17 19 20 21 22 23 23 24 25 25 26 27 28 28 29 30 30 30 31 32 31 31 31 30 30 31
23 23 22 20 20 20 20 20 20 20 21 21 20 20 21 20 20 20 19 19 19 19 19 19 19 19 19 19 18 18 18 17 18 18 18 17 16 14 13 12 12 12 12 12 12 11 11 11 11 11 11 11 11 12 13 14 15 16 16 17 19 20 21 21 22 22 23 24 25 26 26 27 28 29 29 29 30 31 31 31 31 31 31 30 30
23 23 22 21 21 20 19 19 19 19 20 19 19 19 20 20 20 19 19 19 19 20 20 19 19 19 19 19 19 19 18 18 19 19 18 17 16 15 14 14 13 13 12 13 12 12 12 12 11 11 11 11 12 12 13 14 15 16 17 18 19 20 21 21 21 22 23 24 25 25 26 27 28 28 29 29 29 30 31 31 31 31 31 30 29
23 23 22 22 21 21 20 19 19 19 19 19 18 19 19 20 20 20 20 20 20 20 20 20 20 20 20 19 19 19 18 19 19 19 19 18 17 16 16 15 14 14 13 13 13 12 12 12 12 12 12 12 13 13 14 14 15 16 17 18 19 20 20 20 21 22 22 23 24 25 26 27 27 28 29 29 29 30 31 31 31 31 31 30 29
22 22 22 22 21 21 20 20 19 19 19 19 19 19 19 20 20 20 20 20 20 20 20 20 20 20 20 19 19 19 19 19 19 19 19 18 18 17 17 16 15 15 15 14 14 13 13 13 13 13 13 13 13 14 14 15 15 16 17 18 19 19 20 20 21 21 22 22 23 24 25 26 27 28 29 29 28 29 30 30 30 30 30 30 29
22 22 22 21 21 20 20 20 20 20 20 20 20 20 20 20 21 21 21 21 20 20 20 20 20 20 20 20 19 19 19 19 19 19 19 19 18 18 17 17 16 16 16 15 15 14 14 14 14 14 14 14 14 15 15 15 16 17 17 18 19 19 19 20 20 21 21 22 23 24 25 25 26 27 28 28 28 28 29 29 29 29 30 29 29
22 22 22 22 21 21 21 20 20 20 20 20 20 20 21 21 21 21 21 21 20 20 20 20 20 20 20 20 20 19 20 19 19 19 19 19 19 18 18 18 17 17 17 16 16 16 15 15 15 15 15 15 15 16 16 16 16 17 18 18 18 19 19 20 20 21 21 22 22 23 24 25 26 27 27 28 28 28 28 29 29 29 29 29 29
22 22 22 22 22 22 21 21 21 21 21 21 21 21 21 22 22 21 21 21 21 20 20 21 21 20 20 20 19 19 20 20 20 20 20 19 19 19 18 18 17 17 17 16 17 17 16 16 16 16 16 16 16 16 17 17 17 18 18 18 19 19 19 20 20 21 21 22 22 23 24 25 25 26 26 27 27 27 28 28 28 29 29 29 29
23 23 23 23 22 22 22 22 22 22 22 22 22 21 21 21 21 21 21 21 21 21 21 21 21 20 20 20 20 20 21 21 21 20 20 19 19 19 18 18 18 17 17 17 17 17 17 17 17 17 17 17 17 17 17 17 18 18 19 19 19 19 20 20 20 21 21 22 22 23 24 24 25 25 26 27 27 27 27 28 28 28 29 29 29
24 24 24 24 23 23 23 23 22 22 22 23 22 22 21 21 21 21 21 22 22 22 22 21 21 21 20 21 21 21 21 21 21 20 20 20 20 19 18 18 17 17 17 17 18 18 18 18 18 18 18 18 18 18 18 18 19 19 19 19 19 19 20 20 21 21 22 22 22 23 23 24 25 25 26 26 27 27 27 27 28 28 28 29 29
25 25 25 25 25 24 24 23 23 23 23 23 23 23 23 22 21 21 21 22 22 23 22 22 22 22 22 21 21 21 21 21 21 20 20 20 20 19 19 18 18 18 18 18 19 19 19 19 19 19 19 19 19 19 19 19 19 20 20 20 20 20 20 21 21 22 22 22 22 23 23 24 25 25 26 26 27 27 27 27 27 28 28 29 29
25 26 26 26 26 26 25 24 24 24 24 24 24 24 24 23 23 22 22 22 22 23 23 23 23 23 23 22 22 22 22 21 21 21 21 21 21 21 20 20 19 19 19 19 20 20 20 20 20 20 20 20 20 20 20 20 20 21 21 21 21 21 21 21 21 22 23 23 23 23 24 24 25 25 26 26 26 27 27 27 27 28 28 29 29
25 26 26 26 27 27 26 25 25 25 25 25 25 25 25 25 24 23 23 23 23 23 24 24 24 24 24 23 23 23 23 22 22 21 21 21 21 21 21 21 21 20 20 21 21 21 21 21 21 21 21 21 21 21 21 21 21 21 21 21 21 21 21 21 22 23 23 24 24 24 24 24 25 26 26 26 27 27 27 28 28 28 29 29 29
24 24 25 26 27 27 26 26 26 26 26 25 25 25 25 25 24 24 24 24 24 24 24 25 25 25 25 25 24 23 23 23 22 22 22 22 22 22 22 22 22 22 22 22 22 22 22 22 22 21 21 22 22 22 22 22 22 22 22 22 22 22 22 22 23 23 24 24 25 25 25 25 26 26 27 27 27 27 27 28 28 28 29 29 30
24 24 25 25 26 26 26 26 26 26 26 26 26 26 26 25 25 25 25 25 25 25 25 26 26 26 26 26 25 25 24 24 23 23 22 22 22 22 22 22 23 23 23 23 23 23 23 22 22 22 22 22 22 22 22 22 22 22 22 22 22 22 23 23 24 24 25 25 26 26 26 26 26 27 27 28 27 28 28 28 28 29 30 30 30
23 24 25 26 26 26 26 26 26 25 25 25 26 26 26 26 26 25 25 26 26 26 26 26 27 27 27 27 26 26 26 25 25 24 23 23 23 23 24 24 24 24 24 24 24 24 24 23 23 23 23 23 22 22 23 23 23 23 23 23 23 23 24 24 24 25 26 26 27 27 27 27 27 27 28 28 28 28 28 28 29 29 30 31 31
23 24 24 25 26 26 25 25 25 25 25 25 25 26 26 26 25 25 26 26 26 27 27 27 28 28 28 28 27 27 27 27 26 26 25 25 25 25 25 25 25 24 24 24 24 24 24 24 24 23 23 23 23 23 23 24 24 24 24 24 24 24 25 25 26 26 27 27 27 27 27 27 27 27 28 28 28 28 28 29 30 30 31 31 31
24 24 24 24 25 25 25 25 25 25 25 25 25 25 25 25 25 25 26 26 26 27 27 28 28 29 29 28 28 28 28 28 28 27 27 27 27 27 26 26 26 26 25 25 25 25 24 24 24 23 24 24 24 25 25 24 24 24 24 24 25 26 26 26 27 27 27 27 27 27 27 27 27 28 28 29 29 29 30 30 31 31 32 32 32
25 24 24 24 25 25 25 25 25 24 24 24 24 24 24 24 24 24 25 25 26 27 27 27 27 28 28 28 28 28 28 29 29 29 29 29 29 28 27 27 27 27 27 26 26 25 25 24 24 24 24 25 25 26 26 25 25 25 25 26 26 26 27 27 27 27 28 28 27 28 28 28 28 28 29 29 30 30 31 31 32 32 33 33 33
24 24 24 24 24 24 24 24 24 24 24 24 24 24 24 24 24 24 24 25 26 26 26 26 27 27 27 27 28 28 28 29 29 30 30 30 30 29 28 28 28 28 28 28 27 27 26 26 25 26 26 26 26 26 27 26 26 26 26 27 27 28 28 28 28 28 28 28 28 28 29 29 29 29 30 30 31 31 32 33 33 33 34 34 35
23 23 23 24 24 24 24 24 24 23 23 23 23 23 23 23 23 23 24 24 25 26 26 26 27 27 28 28 28 29 29 28 29 29 30 30 30 30 29 28 28 28 28 28 29 28 28 27 27 27 27 27 27 27 27 26 27 27 28 28 28 29 29 29 29 29 29 29 29 29 29 30 30 30 31 32 32 33 33 34 34 35 35 36 36
21 21 22 22 23 23 23 23 23 23 23 23 22 22 22 22 22 22 23 24 25 25 25 25 26 27 28 29 30 30 29 28 28 29 29 29 29 30 29 29 28 28 28 29 29 29 29 28 28 28 28 28 28 28 27 27 28 29 29 29 29 29 29 29 29 30 30 30 30 30 30 31 31 32 33 33 34 34 35 35 36 36 37 37 37
20 20 21 21 22 22 22 22 22 22 22 22 22 22 22 21 21 22 22 23 24 24 24 25 25 26 27 28 29 30 29 28 28 28 28 28 28 29 30 29 29 28 28 28 28 29 29 29 28 28 28 28 28 28 28 28 29 29 30 30 30 30 30 30 30 30 30 30 30 30 31 32 32 33 34 34 35 35 36 36 37 37 38 38 38
19 20 20 20 21 22 21 21 21 21 21 21 21 21 21 21 21 21 22 23 24 24 24 25 25 26 26 27 28 29 29 28 28 29 29 28 28 28 29 29 29 28 28 28 28 28 28 28 28 29 29 29 29 29 29 29 29 30 30 30 30 30 29 29 29 30 30 31 31 32 32 32 33 34 35 35 36 37 37 38 38 38 38 38 38
19 19 19 19 20 20 20 20 20 20 20 20 20 20 21 21 21 22 22 23 24 24 24 24 25 26 26 27 27 28 28 28 29 30 29 29 28 28 28 28 28 28 28 28 28 28 28 29 29 29 29 29 29 29 29 29 29 29 29 29 29 29 29 30 30 31 31 32 32 32 33 34 34 35 36 36 37 38 38 39 39 39 39 39 38
20 20 19 19 19 20 20 20 19 19 19 20 20 21 21 21 21 21 22 23 23 23 24 24 25 25 26 26 27 27 27 28 29 29 29 28 28 27 27 27 28 28 28 28 28 28 28 28 29 29 29 29 29 29 28 28 29 29 29 29 29 29 30 31 31 32 32 33 33 33 34 35 35 36 37 37 38 39 40 40 40 40 39 39 39
20 19 18 18 18 19 19 19 19 19 20 20 21 21 21 21 21 22 22 22 22 23 23 24 24 25 26 26 26 26 27 27 28 28 27 26 26 27 27 27 28 28 28 28 28 28 28 28 28 28 28 28 28 28 28 28 28 28 28 29 29 30 31 32 32 33 33 34 34 34 35 36 36 37 38 39 39 40 40 40 40 40 40 40 40
19 19 18 18 18 18 18 19 20 20 21 20 20 20 21 21 21 22 22 22 22 23 23 24 24 25 25 26 26 26 26 26 26 26 26 26 26 26 26 27 27 28 28 27 27 27 27 27 27 27 27 27 27 27 28 28 28 28 29 29 30 31 32 32 33 33 34 34 35 35 36 36 37 38 39 40 40 40 40 40 40 40 40 40 41
17 17 17 18 18 18 19 19 20 20 20 20 20 20 21 21 21 21 21 22 22 23 23 24 24 24 24 24 24 24 25 24 24 24 24 24 24 24 24 25 25 26 26 26 26 25 25 25 26 26 26 26 27 27 27 28 28 29 29 30 30 31 32 32 33 33 34 35 35 36 37 38 39 39 40 40 40 40 40 40 40 41 41 42 42
16 16 17 17 18 18 18 18 18 19 19 19 20 20 21 21 21 21 21 22 22 23 23 24 24 24 24 23 23 23 23 23 23 23 23 23 23 23 24 24 24 25 25 25 25 25 25 25 25 25 25 26 26 27 27 28 28 29 29 30 31 31 32 32 33 34 35 36 36 37 38 39 39 39 39 39 39 40 40 41 42 42 43 43 43
15 15 16 17 17 17 18 18 18 19 19 19 19 20 20 20 21 21 21 22 22 22 23 23 23 23 22 22 22 22 22 23 23 23 23 23 23 23 24 24 24 24 24 24 24 24 24 24 24 25 25 25 26 26 27 27 28 29 29 30 30 31 32 33 34 35 36 37 38 38 38 39 39 39 39 39 40 41 42 43 43 44 44 44 44
Wind_Direction
216 216 217 217 218 219 216 208 202 198 195 193 190 190 193 195 198 203 204 202 200 200 202 203 206 209 213 218 224 228 233 238 245 255 264 272 279 287 295 304 312 318 322 325 329 333 337 339 340 342 343 344 345 347 348 348 349 349 348 348 348 348 348 346 343 341 342 342 341 340 341 342 341 340 340 342 342 341 339 338 337 336 335 334 332
213 215 215 215 216 215 208 198 193 191 191 192 192 193 196 198 201 203 203 201 202 204 205 206 209 212 217 224 228 230 235 241 248 257 264 270 278 286 295 303 311 318 322 327 331 333 336 338 340 342 343 345 346 347 348 348 348 349 349 349 349 349 349 348 346 343 342 343 343 343 343 344 343 341 342 344 344 344 342 341 340 339 338 337 335
211 212 211 210 211 207 197 190 188 188 190 192 191 191 197 201 202 204 205 205 206 207 208 210 214 218 224 229 231 233 238 244 251 258 263 269 277 286 293 302 310 317 323 328 332 334 336 339 340 341 342 344 346 346 347 348 348 349 349 348 348 349 349 348 346 344 343 343 344 344 345 346 345 344 345 345 346 347 346 345 343 343 342 341 339
209 208 205 204 204 199 192 189 189 190 193 194 191 193 199 203 204 209 210 209 209 210 212 216 220 225 229 233 233 236 240 245 251 257 262 268 276 284 291 301 309 316 322 327 332 334 336 338 340 340 342 344 345 346 347 348 348 348 348 348 348 349 348 347 347 346 345 344 345 346 346 347 347 347 347 347 349 350 350 348 346 345 346 345 343
207 205 203 203 201 197 195 193 193 194 196 197 196 198 202 204 208 213 214 211 213 215 217 221 226 230 233 235 235 238 241 246 250 254 260 267 274 282 290 299 307 314 321 326 330 333 335 337 339 339 341 343 344 345 346 347 348 349 349 349 349 350 349 349 349 348 346 346 347 348 349 349 350 350 350 350 350 351 352 352 350 348 349 349 347
205 204 204 203 201 199 198 197 196 196 197 199 200 203 206 209 214 219 218 216 218 221 223 227 231 233 235 236 237 240 242 245 249 252 258 265 271 279 288 296 304 312 319 324 328 331 334 335 337 338 340 342 343 344 345 347 348 349 350 350 350 350 351 351 352 350 349 349 349 350 351 351 352 352 352 353 352 352 353 353 353 352 351 351 350
204 204 205 204 202 201 200 199 199 199 200 201 203 207 210 213 218 223 222 220 223 226 228 231 234 235 237 238 239 241 242 244 247 251 256 262 268 276 284 292 301 308 316 321 325 329 331 333 335 337 339 340 342 343 344 346 347 349 350 351 351 352 353 353 353 351 350 351 351 352 353 353 353 353 354 355 355 354 354 353 353 354 354 353 353
206 207 207 206 205 204 203 203 203 203 204 205 207 210 212 216 222 225 224 224 228 230 232 235 237 238 239 240 240 241 241 243 246 249 254 259 264 271 279 288 297 304 311 317 321 325 328 330 333 335 338 340 342 344 345 346 347 349 350 350 352 353 354 354 353 353 352 352 353 353 353 354 354 354 355 356 356 356 355 354 353 355 356 356 355
208 208 208 208 208 207 207 207 208 208 209 210 211 213 215 219 225 227 227 229 232 234 236 238 239 240 241 241 241 241 242 244 246 248 252 256 261 268 275 283 292 299 306 312 318 322 325 328 332 334 337 341 342 344 346 347 348 349 350 351 352 354 355 355 354 354 353 353 354 354 354 354 354 355 355 356 356 356 356 356 355 356 357 358 358
209 209 210 210 210 210 210 211 212 211 212 214 215 216 219 224 228 228 229 233 235 236 239 241 242 242 241 241 241 242 244 245 246 248 251 253 258 265 272 279 287 294 300 307 313 317 321 325 329 331 334 338 341 343 344 347 349 350 350 352 353 354 355 356 356 355 355 354 354 354 354 355 355 355 356 357 357 357 357 357 357 357 358 359 360
211 211 212 212 211 212 213 214 214 214 215 216 217 219 223 227 229 229 232 235 236 239 241 242 244 243 241 240 241 243 245 245 244 247 251 254 258 263 269 276 282 288 295 302 307 312 316 320 324 327 331 334 338 341 344 347 349 350 351 353 354 355 355 356 356 357 356 355 355 355 355 354 354 355 356 356 357 358 358 358 358 358 359 -0 0
212 213 214 214 213 213 215 216 216 216 217 218 220 223 226 228 229 230 233 236 238 240 242 243 244 243 242 241 241 244 245 242 241 245 250 254 259 263 268 273 278 284 290 296 301 306 311 316 321 325 329 331 333 337 342 346 348 349 350 352 354 355 355 356 356 356 356 355 355 355 355 355 355 355 356 356 357 358 359 359 359 359 360 0 1
212 214 215 216 215 216 218 218 218 219 220 222 225 227 228 229 231 233 235 237 239 240 242 244 244 244 243 242 242 244 243 240 240 244 247 252 259 263 267 270 274 279 285 291 295 299 305 311 316 322 326 329 332 335 339 343 345 346 348 350 352 354 354 354 354 354 355 355 355 355 355 355 355 355 356 356 356 358 359 359 360 360 360 1 1
214 215 216 217 218 219 219 220 220 222 224 227 230 230 231 233 235 236 237 238 239 241 243 244 245 244 243 242 243 244 242 239 240 242 245 250 257 262 265 266 270 276 282 287 290 294 301 308 313 318 322 327 332 335 337 340 343 345 347 349 351 353 354 354 354 354 354 355 355 355 355 355 355 355 356 356 356 357 358 358 359 359 359 0 1
216 217 217 219 220 220 221 222 223 226 228 231 232 232 234 236 237 238 239 240 241 243 244 245 245 244 243 243 244 243 240 238 238 241 245 250 257 262 263 264 268 274 279 282 287 293 299 305 310 314 319 325 331 334 336 338 341 344 347 349 350 352 353 354 355 355 355 355 355 355 355 355 354 355 355 356 356 357 357 356 358 359 359 360 1
217 219 220 221 221 222 223 224 225 229 232 233 233 234 236 237 238 240 241 241 243 244 246 246 246 244 243 243 242 241 238 237 238 241 245 249 256 263 263 262 265 270 275 279 284 290 296 301 306 311 317 323 328 331 333 335 339 342 345 347 348 350 351 353 354 355 355 354 354 355 355 355 354 354 355 355 356 357 357 356 358 358 359 0 2
220 221 222 223 224 225 226 226 228 231 233 234 234 236 238 238 240 241 241 242 243 244 245 246 246 245 244 243 241 239 237 238 239 241 244 248 255 259 259 259 263 268 273 277 281 286 293 298 303 308 314 320 325 327 329 332 336 340 343 346 347 349 350 351 352 353 353 353 353 353 353 354 354 354 354 355 355 356 357 357 357 357 358 0 2
222 223 224 225 225 226 228 229 231 233 234 234 235 237 239 240 241 242 242 242 242 243 245 246 247 247 245 244 243 240 239 239 240 240 243 247 250 254 256 259 264 267 270 274 277 283 290 295 302 307 311 317 321 324 327 330 333 337 340 343 346 347 348 349 350 351 352 352 352 352 352 353 354 354 355 355 355 356 356 357 357 357 357 359 1
224 226 226 226 227 229 230 231 232 234 235 236 237 238 240 241 242 242 242 243 243 244 246 247 247 246 245 244 243 239 238 240 240 240 242 243 245 251 258 261 263 265 269 272 275 279 285 292 300 306 309 314 317 321 325 328 330 334 337 340 343 345 346 346 347 349 350 351 352 352 353 353 354 354 354 355 355 356 356 356 356 356 357 358 359
228 228 226 227 229 231 232 233 234 236 237 238 238 239 240 241 242 242 242 243 243 244 246 246 246 246 246 244 240 237 237 240 240 238 238 240 243 250 258 261 262 264 267 270 273 276 282 288 294 300 304 309 313 317 322 325 328 331 334 337 340 341 342 343 344 346 347 349 350 351 353 354 354 354 354 354 355 356 356 355 355 355 355 356 358
228 227 226 228 230 231 233 235 236 238 240 240 240 240 241 242 242 241 241 241 241 243 245 247 247 247 247 242 237 235 237 239 238 236 236 240 245 250 256 260 263 264 266 269 273 277 281 285 289 294 299 304 309 313 318 322 325 328 331 334 336 337 339 340 342 343 345 347 348 350 352 353 354 354 355 354 354 356 355 355 355 355 354 355 356
227 227 229 232 232 232 234 235 236 239 240 240 239 238 239 240 240 241 241 241 241 242 245 247 247 247 246 241 236 237 238 238 237 237 238 242 246 249 254 260 263 265 268 269 272 275 279 282 285 289 294 299 304 309 314 319 321 324 328 330 332 333 336 338 340 342 344 346 348 349 350 352 353 354 354 354 355 355 354 354 355 355 353 353 354
225 226 230 233 233 233 234 235 236 238 237 237 238 237 237 238 239 241 243 243 242 243 243 244 244 244 243 240 239 241 239 237 237 238 240 243 246 248 253 258 260 262 266 269 271 273 276 279 280 284 289 295 300 305 311 315 318 322 325 327 328 331 333 336 338 340 342 344 346 348 349 350 351 352 354 355 355 355 354 354 354 353 353 353 352
226 227 231 233 233 233 234 235 237 238 237 237 237 237 237 238 240 243 244 244 244 242 241 242 242 242 241 240 241 241 239 238 238 238 240 243 245 247 251 254 257 260 264 269 271 272 274 276 277 280 285 290 295 301 306 311 316 319 321 323 326 329 332 334 336 338 340 342 344 346 348 349 349 350 352 353 353 354 355 355 354 353 353 353 352
226 228 230 231 232 233 235 237 238 239 239 239 239 239 239 240 241 243 244 245 244 242 240 240 240 240 241 241 241 239 237 238 239 238 239 242 245 247 249 252 255 258 261 266 269 270 272 274 275 278 281 286 292 297 302 308 311 314 317 320 324 327 330 332 334 336 338 340 342 344 346 347 348 348 349 349 351 353 355 355 355 354 354 353 352
228 229 230 232 233 234 235 238 238 239 240 241 242 242 241 241 242 243 244 244 243 241 239 238 238 240 241 241 238 236 236 238 239 239 240 242 244 246 248 250 253 256 260 264 267 268 269 272 274 276 279 283 288 294 300 304 307 310 313 317 322 325 327 330 333 334 335 337 339 341 343 345 345 346 347 348 350 352 353 354 354 354 354 353 352
232 232 233 234 235 236 237 239 240 239 240 241 242 243 242 242 243 243 243 243 242 240 238 236 237 240 241 238 235 234 235 237 239 239 240 243 244 246 247 250 253 256 259 262 265 266 268 269 271 274 277 281 285 291 296 300 303 307 310 313 317 321 324 328 330 331 332 334 335 338 340 341 343 344 345 347 348 350 351 352 353 353 353 353 353
235 235 235 236 237 238 239 240 240 240 240 241 241 242 242 243 244 244 243 242 240 238 237 237 238 240 239 236 233 233 235 237 239 240 241 242 244 246 248 250 253 255 258 261 264 265 266 268 270 272 275 279 283 287 292 296 300 304 307 310 313 316 319 323 325 327 328 330 331 334 336 339 341 342 343 345 346 347 348 350 351 352 352 353 353
236 236 237 237 238 240 240 241 241 240 240 240 241 242 243 243 244 244 244 243 241 238 237 237 238 238 237 234 233 234 236 238 240 241 241 241 243 247 249 251 253 255 257 260 263 264 266 267 269 271 273 277 281 285 289 293 297 300 303 307 310 312 315 319 321 323 326 327 328 330 333 336 338 339 341 342 343 344 345 347 348 349 351 351 352
239 238 237 237 238 240 241 242 242 243 242 240 240 241 243 245 246 246 246 244 242 241 239 238 237 236 236 236 236 237 238 239 239 240 241 242 244 247 250 252 254 256 258 259 261 264 266 267 268 269 272 275 279 283 287 291 295 298 300 303 306 309 312 315 318 321 323 324 325 327 329 332 334 337 338 339 340 341 342 344 345 346 348 349 349
240 239 238 237 238 240 242 242 243 244 243 242 241 241 243 245 247 249 249 246 243 241 241 240 239 237 238 239 239 240 240 240 240 241 243 244 245 247 249 252 254 256 258 260 261 262 265 266 267 269 271 274 277 281 285 289 292 295 298 301 303 305 308 311 314 318 320 320 321 323 326 328 331 333 334 335 336 337 339 340 342 343 344 345 345
240 239 239 239 239 241 243 244 244 244 243 243 243 243 244 245 247 249 250 248 244 242 241 242 242 241 240 241 241 240 241 241 242 243 244 245 246 247 249 252 254 256 258 260 260 261 263 265 267 268 270 273 276 279 283 286 290 293 296 299 300 302 305 308 312 315 317 318 319 320 323 325 327 328 330 331 332 333 335 336 338 339 340 341 341
241 240 241 240 240 242 244 245 245 245 245 244 244 245 246 246 247 247 247 247 246 244 243 243 243 243 242 243 243 242 241 241 242 244 245 246 246 247 249 252 254 255 258 259 260 261 263 265 267 269 271 273 276 279 282 285 288 291 294 296 298 300 303 307 310 312 314 316 316 317 319 321 323 324 325 327 328 329 331 332 334 335 336 337 338
242 242 241 241 242 244 245 245 246 246 246 245 245 246 246 247 246 246 245 245 245 245 244 243 243 243 243 243 243 242 241 240 242 245 246 247 247 247 249 252 254 255 258 259 259 261 263 266 268 270 272 274 276 279 281 284 286 289 292 295 297 300 302 305 307 310 312 313 314 315 316 318 320 322 323 324 325 326 327 329 330 331 333 333 334
243 243 242 242 243 246 247 246 246 246 246 246 246 247 247 247 247 247 246 245 245 245 245 243 243 243 243 242 241 240 239 240 242 245 247 248 248 248 249 253 255 256 258 259 259 261 264 266 268 270 271 273 276 278 280 283 285 288 291 293 296 299 301 303 305 308 310 312 312 313 314 315 317 319 320 321 322 323 324 326 327 328 329 330 331
245 245 244 244 245 247 248 248 247 247 247 247 247 248 248 248 248 249 248 246 245 246 246 245 243 242 242 242 240 239 238 239 242 245 247 248 249 249 250 253 255 257 258 259 259 261 264 266 267 269 271 273 275 278 280 282 284 287 289 292 294 297 299 301 304 306 308 309 310 311 312 313 315 317 319 320 320 321 322 323 325 326 327 328 328
246 247 246 246 246 248 249 249 248 248 248 248 248 248 248 249 250 250 250 248 247 247 247 246 244 242 242 241 240 239 239 240 243 245 247 248 249 251 252 254 256 258 259 260 260 262 263 265 266 269 271 273 275 277 279 281 283 285 288 290 293 295 297 299 301 303 305 307 308 308 309 311 313 314 316 317 318 319 320 321 322 323 324 325 325
248 249 248 247 247 247 248 249 248 248 248 248 248 248 249 249 250 251 251 249 248 247 249 248 245 243 241 241 241 241 242 243 245 247 249 249 250 251 253 255 256 258 260 261 262 262 263 264 266 269 272 274 275 276 278 279 282 285 287 290 292 294 295 297 299 301 303 304 305 307 307 309 310 311 312 314 315 316 318 319 320 321 322 322 323
250 251 249 248 247 247 248 248 248 248 248 248 249 249 249 249 250 251 252 251 249 247 247 248 246 243 242 242 242 243 245 246 248 249 250 250 251 252 254 255 257 258 260 262 263 264 264 265 266 269 271 273 275 276 277 278 281 285 287 290 292 292 293 295 297 299 301 302 304 305 305 307 308 309 310 311 312 314 315 317 318 318 319 320 320
252 251 249 248 247 248 248 248 247 248 248 248 249 249 248 249 250 251 252 252 249 246 246 247 246 244 244 244 244 245 246 248 249 250 251 251 251 252 254 256 258 259 260 262 263 264 264 265 266 269 271 273 275 277 277 278 281 285 287 288 290 291 292 294 296 298 299 301 302 303 303 304 305 307 308 309 310 312 313 314 315 316 316 316 317
253 251 248 246 246 247 247 247 247 248 248 248 248 248 248 248 250 251 252 251 249 247 248 248 248 247 247 246 246 246 248 249 251 252 252 252 252 253 255 257 259 261 262 263 264 264 265 266 268 270 271 272 275 277 277 278 281 285 286 287 288 290 291 292 294 296 298 299 300 301 302 303 303 305 306 307 308 309 311 312 313 313 314 314 315
252 250 247 244 244 245 246 246 246 246 246 247 248 248 248 249 251 252 252 251 250 249 249 250 250 250 250 248 248 249 250 251 253 255 254 253 253 254 255 257 260 262 263 264 265 266 266 267 268 271 272 273 275 277 278 280 282 284 285 286 288 289 290 292 294 295 297 298 299 299 300 301 302 303 304 305 306 308 309 310 311 311 312 312 313
251 249 246 244 244 245 245 245 246 246 246 246 247 248 249 251 253 254 254 253 251 250 249 250 251 252 252 251 251 252 253 253 254 256 256 255 255 255 256 258 260 262 263 264 265 267 268 268 269 271 273 274 276 278 280 281 282 284 285 286 287 288 290 291 293 295 297 298 298 299 299 300 300 301 302 303 304 306 307 308 309 310 310 311 311
249 248 246 245 244 244 243 244 246 246 246 246 247 249 251 253 254 255 255 254 253 251 250 251 252 253 254 254 254 254 254 253 254 256 257 257 256 256 257 258 259 261 262 263 264 267 269 270 271 272 274 275 278 280 281 282 282 283 285 286 287 288 290 291 293 294 296 297 297 298 299 299 299 300 301 303 304 305 306 307 308 309 309 309 309
247 246 246 245 244 244 244 245 246 246 246 248 250 252 254 255 256 256 256 255 254 252 252 253 253 254 255 255 256 255 254 254 255 257 258 258 257 256 256 258 260 262 263 264 265 267 270 271 272 273 275 277 279 280 281 282 283 284 285 286 287 288 290 291 292 293 295 296 297 298 298 299 299 300 302 303 304 305 306 306 307 307 307 307 308
245 245 246 246 245 245 245 246 247 247 249 251 254 255 255 256 257 257 256 255 255 254 254 254 255 255 255 257 258 257 256 256 257 258 258 257 256 256 257 259 261 263 264 265 267 269 271 272 273 275 276 278 279 280 281 283 284 285 286 286 287 288 290 291 293 294 295 296 296 297 298 299 300 301 302 303 304 304 305 305 305 306 306 306 306
244 245 247 247 246 246 246 247 249 250 253 254 255 256 255 256 257 257 256 256 255 255 255 256 256 256 257 258 259 259 258 257 257 257 256 255 255 257 259 261 263 265 266 267 269 271 273 274 274 275 276 278 279 281 282 284 284 285 286 287 288 290 291 292 293 294 295 296 296 297 298 299 300 301 302 303 303 303 304 304 304 305 305 305 305
245 246 246 246 247 248 250 250 251 252 253 254 254 254 254 254 255 257 256 256 256 256 256 257 257 258 259 260 260 259 258 257 255 254 254 255 257 259 261 262 264 266 268 269 270 272 273 273 274 275 276 278 280 281 282 283 284 285 287 289 290 291 293 293 294 295 296 297 297 298 299 300 300 301 302 302 302 303 303 303 304 304 305 305 305
244 244 245 247 249 251 252 252 252 252 253 254 254 254 254 254 255 256 256 256 256 257 257 258 259 260 260 261 260 257 255 254 253 253 255 256 258 260 261 263 265 267 269 270 271 271 272 274 275 276 278 279 281 282 283 284 286 287 289 291 292 293 294 295 295 296 298 298 298 299 300 300 301 301 302 302 302 302 303 303 304 304 304 304 304
241 244 246 249 251 252 252 253 254 254 255 255 255 255 255 255 255 256 257 257 258 258 259 259 260 260 259 258 257 255 254 253 253 255 257 258 260 261 263 265 267 268 269 269 271 272 274 275 277 278 279 280 282 283 285 287 289 290 291 293 294 295 296 297 297 298 299 300 299 300 300 301 301 301 302 302 303 303 304 304 304 304 304 304 304
245 247 249 250 251 253 254 254 255 255 256 255 255 256 256 257 257 258 258 258 259 260 259 259 258 258 258 257 256 255 255 255 255 256 258 260 262 263 264 266 266 267 269 271 272 274 275 276 277 278 280 282 284 286 288 290 291 292 294 295 296 297 298 298 299 300 300 300 300 300 301 302 302 302 303 303 304 304 304 304 304 304 304 304 304